STORKMARKNES/SKAGEN current weather conditions

sailwx.info

Wind from 300 at 18 knots

Air temperature 7.0° C
Visibility: greater than 5.4 NM
Dewpoint 6.0° C
Present weather: Light rain drizzle.

Last reported at 2020-Sep-25 12:50 UTC.
Time now 2020-Sep-25 13:32 UTC

Location: N 68°35' E 015°01'.
View on Google Maps.

See reports from other nearby stations

  
Tides and Currents Weather Stations Pressure Air Temp Water Temp Dewpoint Dewpoint Depression Visibility Wind Speed Wind Dir Waves Ship Positions
date/time (UTC)wind fromknots sea level pressurealtimeterstation pressurevisibilityair tempwater tempwave heightnotes
2020-Sep-25 12:50 300 18 5.4 7.0 Light rain drizzle.
2020-Sep-25 12:20 270 13 5.4 8.0 Light rain drizzle.
2020-Sep-25 11:50 270 13 4.3 8.0 Light rain drizzle.
2020-Sep-25 11:20 280 2 5.4 8.0 Light rain.
2020-Sep-25 10:50 300 5 5.4 8.0 Light rain.
2020-Sep-25 10:20 280 7 4.9 7.0 Rain.
2020-Sep-25 09:50 4.3 8.0 Rain.
2020-Sep-25 09:20 300 2 4.9 7.0 Rain.
2020-Sep-25 08:50 4.9 8.0 Rain showers.
2020-Sep-25 08:25 5.4 8.0 Light rain showers.
2020-Sep-25 07:50 5.4 8.0 Showers in the vicinity.
2020-Sep-25 07:20 360 2 5.4 8.0 Showers in the vicinity.
2020-Sep-25 06:50 300 4 5.4 8.0 Light rain showers.
2020-Sep-25 06:20 5.4 8.0
2020-Sep-25 05:50 010 2 5.4
2020-Sep-24 17:50 050 9 5.4 7.0
2020-Sep-24 17:20 050 7 5.4 7.0
2020-Sep-24 16:50 040 9 5.4 7.0
2020-Sep-24 16:20 040 9 5.4 7.0
2020-Sep-24 15:50 050 6 5.4 7.0
2020-Sep-24 15:20 050 7 5.4 7.0
2020-Sep-24 14:50 040 6 5.4 7.0
2020-Sep-24 14:20 050 6 5.4 7.0
2020-Sep-24 13:50 040 6 5.4 7.0
2020-Sep-24 13:20 050 5 5.4 7.0
2020-Sep-24 12:50 060 5 5.4 8.0
2020-Sep-24 12:20 070 6 5.4 8.0
2020-Sep-24 11:50 5.4 8.0
2020-Sep-24 10:50 170 4 5.4 8.0
2020-Sep-24 10:20 5.4 8.0
2020-Sep-24 09:50 080 4 5.4 7.0
2020-Sep-24 08:50 5.4 8.0
2020-Sep-24 08:20 240 4 5.4 7.0
2020-Sep-24 07:50 340 5 6.0 Showers in the vicinity.
2020-Sep-24 07:20 300 7 6.0 Showers in the vicinity.
2020-Sep-24 06:50 230 6 7.0 Showers in the vicinity.
2020-Sep-24 06:20 280 6 5.4 7.0
2020-Sep-23 17:50 200 36 gusting 51 5.4 9.0 Rain showers.
2020-Sep-23 17:20 210 29 gusting 44 5.4 9.0 Rain showers.
2020-Sep-23 16:50 180 27 gusting 39 5.410.0 Rain showers.
2020-Sep-23 16:20 180 27 gusting 38 5.410.0 Showers in the vicinity.
2020-Sep-23 15:50 210 28 gusting 42 5.411.0 Showers in the vicinity.
2020-Sep-23 15:20 220 26 gusting 39 5.412.0 Showers in the vicinity.
2020-Sep-23 14:50 210 19 gusting 28 5.412.0 Showers in the vicinity.
2020-Sep-23 13:50 140 13 5.411.0 Light rain.
2020-Sep-23 13:20 150 15 5.411.0 Light rain showers.